Regional Weather Roundup
Issued by NWS

Home | Current Version | Previous Version | Text Only | Print | Product List | Glossary Off
Versions: 1 2 3 4 5 6 7 8 9 10 11 12 13 14 15 16 17 18 19 20 21 22 23 24 25 26 27

000
ASUS45 KBOI 282310
RWRID

IDAHO REGIONAL WEATHER ROUNDUP
NATIONAL WEATHER SERVICE BOISE ID
500 PM MDT SUN MAY 28 2017

NOTE: "FAIR" INDICATES FEW OR NO CLOUDS BELOW 12000 FEET
WITH NO SIGNIFICANT WEATHER AND/OR OBSTRUCTIONS TO VISIBILITY

IDZ012-014-290000-
SOUTHWEST IDAHO


CITY           SKY/WX    TMP DP  RH WIND       PRES   REMARKS
BOISE          SUNNY     84  32  15 VRB5      30.11F
CALDWELL       SUNNY     85  44  23 VRB3      30.11F
MOUNTAIN HOME  SUNNY     83  30  15 SE5       30.11F
$$

IDZ016-017-290000-
SOUTHCENTRAL IDAHO


CITY           SKY/WX    TMP DP  RH WIND       PRES   REMARKS
BURLEY         SUNNY     76  35  22 NE5       30.18F
JEROME         SUNNY     76  33  21 SE6       30.19F
TWIN FALLS     SUNNY     76  38  25 NE6       30.19F
$$

IDZ019>023-290000-
SOUTHEAST IDAHO


CITY           SKY/WX    TMP DP  RH WIND       PRES   REMARKS
IDAHO FALLS    MOSUNNY   74  39  28 NW12      30.21F
POCATELLO      MOSUNNY   74  37  26 NW7       30.22F
REXBURG        SUNNY     71  29  21 SW6       30.22F
$$

IDZ006-010-011-018-031-032-290000-
CENTRAL IDAHO MOUNTAINS


CITY           SKY/WX    TMP DP  RH WIND       PRES   REMARKS
MCCALL         SUNNY     72  34  24 SW9       30.22F
HAILEY         MOSUNNY   72  43  35 SE9       30.25F
STANLEY          N/A     71  28  20 N7        30.29F
SALMON         SUNNY     77  34  20 W5        30.12F
CHALLIS        MOSUNNY   76  26  15 VRB6      30.19F
$$

IDZ002-004-006-007-026-290000-
NORTHERN IDAHO


CITY           SKY/WX    TMP DP  RH WIND       PRES   REMARKS
LEWISTON       SUNNY     88  39  17 N7        30.05F
LOWELL           N/A     85  40  20 S6        30.04F
COEUR D`ALENE  SUNNY     84  47  27 VRB6      30.11F
MULLAN PASS    PTSUNNY   61  38  42 CALM      30.29S
$$




USA.gov is the U.S. government's official web portal to all federal, state and local government web resources and services.